2023/09/23 00:00:00,12.6,17.8
2023/09/23 00:10:00,11.5,17.9
2023/09/23 00:20:00,11.6,17.7
2023/09/23 00:30:00,11.1,17.6
2023/09/23 00:40:00, 8.6,17.8
2023/09/23 00:50:00, 3.3,17.8
2023/09/23 01:00:00, 4.3,17.9
2023/09/23 01:10:00, 4.0,18.0
2023/09/23 01:20:00, 5.2,18.1
2023/09/23 01:30:00, 6.0,18.1
2023/09/23 01:40:00, 6.1,18.3
2023/09/23 01:50:00, 6.7,18.3
2023/09/23 02:00:00, 5.8,19.1
2023/09/23 02:10:00, 5.5,18.6
2023/09/23 02:20:00, 2.7,18.8
2023/09/23 02:30:00, 0.0,18.5
2023/09/23 02:40:00, 0.0,18.6
2023/09/23 02:50:00, 0.0,18.7
2023/09/23 03:00:00, 0.0,18.6
2023/09/23 03:10:00, 0.0,19.0
2023/09/23 03:20:00, 0.0,18.8
2023/09/23 03:30:00, 0.0,18.7
2023/09/23 03:40:00, 0.0,18.6
2023/09/23 03:50:00, 0.0,18.6
2023/09/23 04:00:00, 0.0,18.6
2023/09/23 04:10:00, 0.0,18.8
2023/09/23 04:20:00, 0.0,18.5
2023/09/23 04:30:00, 0.0,18.4
2023/09/23 04:40:00, 0.0,18.4
2023/09/23 04:50:00, 0.0,18.4
2023/09/23 05:00:00, 0.0,18.4
2023/09/23 05:10:00, 0.0,18.2
2023/09/23 05:20:00, 0.0,17.9
2023/09/23 05:30:00, 0.0,17.9
2023/09/23 05:40:00, 0.0,17.8
2023/09/23 05:50:00, 0.0,17.8
2023/09/23 06:00:00, 0.0,17.9
2023/09/23 06:10:00, 0.0,17.8
2023/09/23 06:20:00, 0.0,17.8
2023/09/23 06:30:00, 0.0,17.6
2023/09/23 06:40:00,---,17.3
2023/09/23 06:50:00,36.3,17.8
2023/09/23 07:00:00,36.4,17.9
2023/09/23 07:10:00,36.5,18.1
2023/09/23 07:20:00,36.5,17.8
2023/09/23 07:30:00,36.4,18.2
2023/09/23 07:40:00,36.4,18.5
2023/09/23 07:50:00,36.6,19.1
2023/09/23 08:00:00,36.7,20.0
2023/09/23 08:10:00,37.0,20.6
2023/09/23 08:20:00,25.6,20.9
2023/09/23 08:30:00, 0.0,20.3
2023/09/23 08:40:00, 0.0,20.5
2023/09/23 08:50:00, 0.0,21.4
2023/09/23 09:00:00, 0.0,21.9
2023/09/23 09:10:00, 0.0,21.6
2023/09/23 09:20:00, 0.0,21.4
2023/09/23 09:30:00, 0.0,21.1
2023/09/23 09:40:00, 0.0,21.4
2023/09/23 09:50:00, 0.0,21.4
2023/09/23 10:00:00, 0.0,22.5
2023/09/23 10:10:00, 0.0,23.9
2023/09/23 10:20:00,14.9,24.5
2023/09/23 10:30:00,---,24.9
2023/09/23 10:40:00, 1.0,24.2
2023/09/23 10:50:00,---,24.8
2023/09/23 11:00:00,---,25.0
2023/09/23 11:10:00,19.3,24.3
2023/09/23 11:20:00,19.4,24.8
2023/09/23 11:30:00,20.3,23.7
2023/09/23 11:40:00,19.7,25.4
2023/09/23 11:50:00,19.1,25.5
2023/09/23 12:00:00,19.9,25.0
2023/09/23 12:10:00,19.6,24.5
2023/09/23 12:20:00,19.6,25.1
2023/09/23 12:30:00,20.1,24.9
2023/09/23 12:40:00,20.0,24.0
2023/09/23 12:50:00,20.1,25.0
2023/09/23 13:00:00,20.4,24.5
2023/09/23 13:10:00,19.9,24.4
2023/09/23 13:20:00,19.7,24.2
2023/09/23 13:30:00,20.4,24.5
2023/09/23 13:40:00,20.9,24.6
2023/09/23 13:50:00,20.1,25.1
2023/09/23 14:00:00,19.8,26.2
2023/09/23 14:10:00,20.0,26.7
2023/09/23 14:20:00,19.7,26.5
2023/09/23 14:30:00,20.1,26.5
2023/09/23 14:40:00,20.2,25.7
2023/09/23 14:50:00,19.9,26.4
2023/09/23 15:00:00,20.4,26.5
2023/09/23 15:10:00,19.8,25.4
2023/09/23 15:20:00,19.2,26.2
2023/09/23 15:30:00,19.4,24.8
2023/09/23 15:40:00,18.8,25.5
2023/09/23 15:50:00,17.6,24.3
2023/09/23 16:00:00,17.3,24.0
2023/09/23 16:10:00,10.0,23.5
2023/09/23 16:20:00, 5.5,22.8
2023/09/23 16:30:00, 8.7,22.2
2023/09/23 16:40:00,21.0,21.8
2023/09/23 16:50:00,20.3,21.3
2023/09/23 17:00:00,21.1,20.7
2023/09/23 17:10:00,21.3,19.8
2023/09/23 17:20:00,20.8,19.5
2023/09/23 17:30:00,20.9,19.5
2023/09/23 17:40:00,21.2,19.2
2023/09/23 17:50:00,21.2,18.7
2023/09/23 18:00:00,21.2,18.4
2023/09/23 18:10:00,21.2,17.8
2023/09/23 18:20:00,21.1,17.7
2023/09/23 18:30:00,21.1,17.6
2023/09/23 18:40:00,20.9,17.5
2023/09/23 18:50:00,20.9,17.3
2023/09/23 19:00:00,20.7,17.1
2023/09/23 19:10:00,20.4,16.9
2023/09/23 19:20:00,20.3,16.9
2023/09/23 19:30:00,20.2,16.7
2023/09/23 19:40:00,19.9,16.8
2023/09/23 19:50:00,19.6,16.6
2023/09/23 20:00:00,19.5,16.4
2023/09/23 20:10:00,19.5,16.3
2023/09/23 20:20:00,19.5,16.2
2023/09/23 20:30:00,19.3,16.2
2023/09/23 20:40:00,19.3,16.0
2023/09/23 20:50:00,19.4,15.9
2023/09/23 21:00:00,19.5,15.8
2023/09/23 21:10:00,19.3,15.8
2023/09/23 21:20:00,19.4,15.7
2023/09/23 21:30:00,19.3,15.7
2023/09/23 21:40:00,19.2,15.6
2023/09/23 21:50:00,19.1,15.6
2023/09/23 22:00:00,19.2,15.5
2023/09/23 22:10:00,19.3,15.7
2023/09/23 22:20:00,19.3,15.7
2023/09/23 22:30:00,19.2,15.5
2023/09/23 22:40:00,19.2,15.4
2023/09/23 22:50:00,19.2,15.4
2023/09/23 23:00:00,19.1,15.5
2023/09/23 23:10:00,19.2,15.4
2023/09/23 23:20:00,19.2,15.3
2023/09/23 23:30:00,19.1,15.5
2023/09/23 23:40:00,19.1,15.5
2023/09/23 23:50:00,19.0,15.5
